Please Respect the click to advertising, we need your click to keep running, if you cheat and close the leech will lose all of you, know that without their help understand you can not keep it online!, Hope they do one click on each ad shown and gradually add more premiums accounts!

Spanish

Por favor, Respetar el click a la publicidad, necesitamos su click para seguir funcionando, si hace trampa cerraremos el leech y perderan todos!, sepan entender que sin su ayuda no se puede mantener esto online!, espero que hagan 1 click a cada publicidad mostrada y poco a poco agregaremos mas cuentas premiums!
rapidleech neatblue


This server would be definitively closed from the 1st of December, we have no more money to fund it, and you are not making the clicks as asked. if this were to change, and we see that you comply with the order by 1 click pop up will continue running, if not so already know what happened, do not renew the service, greetings

Spanish

Este servidor quedara definitivamente cerrado desde el dia 1 de Diciembre, no disponemos de mas dinero para financiarlo, y ustedes no estan efectuando los clicks como les pedimos. si esto llegara a cambiar y vemos que ustedes cumplen con lo pedido de 1 click por pop up seguiremos funcionando, si no es asi ya saben lo que pasara, no se renovara el servicio, saludos
209 Plugins
Premium Accounts :

Please enable / Bitte aktiviere JavaScript!
Veuillez activer / Por favor activa el Javascript![ ? ]

Link to Transload:
 

Referrer:
 

 User & Pass (HTTP/FTP)
 Add Comments
 
PluginOptions:
Settings:
 Use Proxy Settings  
 Use Premium Account  
 Save To  
 Save Settings  
Check All | Un-Check All | Invert Selection | Match text | Show­

  Name Size Comments Date
turbogenerator.info_SoftArchive.net.KIS.15.0.1.415.0.598.rar 194.91 MB 18.12.2014 05:29:56
turbogenerator.info_HA-2010-06-10-Stasha-SensualNudes.rar 75.82 MB 18.12.2014 05:30:14
turbogenerator.info_www.softarchive.net_DC_Satin_Bloom_FHD.rar 368.97 MB 18.12.2014 05:31:09
turbogenerator.info_Call_of_Duty_Advanced_War-fare_Dubbed_ver_JPN_PS3-HR.part13.rar 917.12 MB 18.12.2014 05:35:17
turbogenerator.info_2014-09-16_438054515.part1.rar 302.00 MB 18.12.2014 05:36:45
turbogenerator.info_Speedpremium.info_kin8tengoku_1180_fhd.part3.rar 499.00 MB 18.12.2014 05:37:05
turbogenerator.info_Speedpremium.info_kin8tengoku_1180_fhd.part4.rar 499.00 MB 18.12.2014 05:38:42
turbogenerator.info_2014-09-16_438054515.part2.rar 161.97 MB 18.12.2014 05:39:42
turbogenerator.info_Speedpremium.info_[HD]DIY-018.part05.rar 499.00 MB 18.12.2014 06:08:06
turbogenerator.info_Speedpremium.info_[HD]DIY-018.part06.rar 499.00 MB 18.12.2014 06:08:17
turbogenerator.info_Speedpremium.info_[HD]DIY-018.part10.rar 85.78 MB 18.12.2014 06:12:15
turbogenerator.info_Speedpremium.info_[HD]DIY-018.part09.rar 499.00 MB 18.12.2014 06:12:50
turbogenerator.info_Speedpremium.info_[FHD]KAWD-599.part03.rar 499.00 MB 18.12.2014 06:17:35
turbogenerator.info_Speedpremium.info_[FHD]KAWD-599.part04.rar 499.00 MB 18.12.2014 06:17:58
turbogenerator.info_Speedpremium.info_[FHD]KAWD-599.part07.rar 499.00 MB 18.12.2014 06:22:37
turbogenerator.info_Speedpremium.info_[FHD]KAWD-599.part08.rar 499.00 MB 18.12.2014 06:22:49
turbogenerator.info_41205d.112614_01-10mu_hd.part1.rar 451.00 MB 18.12.2014 06:23:46
turbogenerator.info_enlacespremium.biz__[FHD]KAWD-599.part09.rar 227.48 MB 18.12.2014 06:24:26
turbogenerator.info_Raw-Zip.Com-Honoo_no_Me_v01-03.rar 475.79 MB 18.12.2014 06:26:43
turbogenerator.info_SammyDaniels_SD.Epidemz.net.Fapdick.com.mp4 305.16 MB 18.12.2014 06:26:54
turbogenerator.info_41205d.112614_01-10mu_hd.part3.rar 451.00 MB 18.12.2014 06:28:02
turbogenerator.info_[774Ho]Nakce2.rar 65.27 MB 18.12.2014 06:34:04
turbogenerator.info_krimch_12_2014.pdf 105.99 MB 18.12.2014 06:34:24
turbogenerator.info_[774_House(Nanashi)]TheNakedPrincess.rar 124.94 MB 18.12.2014 06:34:36
turbogenerator.info_uploaded_net_pr 98.00 B 18.12.2014 06:34:45
turbogenerator.info_Concierge_a03_16-17.rar 107.29 MB 18.12.2014 06:41:46
turbogenerator.info_tutorial_vuforia___unity3d_[YT-f22][z0_3s63c5dE].mp4 40.39 MB 18.12.2014 06:49:57
turbogenerator.info_Tutorial_on_making_an_Android_AR_scene_[YT-f22][YvSrZqP0elQ].mp4 224.21 MB 18.12.2014 06:52:43
turbogenerator.info_Ashimoto_Yoika,_Tekubi_Ni_Honno_Sukoshi_Dake_(www.hentairules.net)_(English).zip 19.57 MB 18.12.2014 07:06:34
turbogenerator.info_Souji_Hougu,_I_Love_You_No_Tsutaekata_(www.hentairules.net)_(English,_Smaller).zip 12.62 MB 18.12.2014 07:07:45
turbogenerator.info_Speedpremium.info_[FHD]KAWD-597.part1.rar 499.00 MB 18.12.2014 07:21:10
turbogenerator.info_Speedpremium.info_[FHD]KAWD-597.part4.rar 499.00 MB 18.12.2014 07:21:31
turbogenerator.info_Speedpremium.info_[FHD]KAWD-597.part6.rar 499.00 MB 18.12.2014 07:25:54
turbogenerator.info_Speedpremium.info_[FHD]KAWD-597.part7.rar 423.36 MB 18.12.2014 07:26:19
turbogenerator.info_Speedpremium.info_[FHD]KAWD-596.part03.rar 499.00 MB 18.12.2014 07:32:30
turbogenerator.info_Speedpremium.info_[FHD]KAWD-596.part04.rar 499.00 MB 18.12.2014 07:32:39
turbogenerator.info_Speedpremium.info_[FHD]KAWD-596.part07.rar 499.00 MB 18.12.2014 07:38:21
turbogenerator.info_Speedpremium.info_[FHD]KAWD-596.part08.rar 499.00 MB 18.12.2014 07:38:29
turbogenerator.info_Jyouren_Kishidan,_Aoko_Blue_1-2-3_(www.hentairules.net)_(English,_Recompressed).zip 64.00 MB 18.12.2014 07:48:57
turbogenerator.info_7WD.S05E08.Dual.rar 429.09 MB 18.12.2014 07:53:17
turbogenerator.info_Le.Saint.S05E02.Intermede.a.Venise.avi 391.58 MB 18.12.2014 07:58:50
turbogenerator.info_Kabayakiya,_Blue_Triangle_and_Pura_Mai_(www.hentairules.net)_(English).zip 28.22 MB 18.12.2014 08:00:05
turbogenerator.info_M4V3R1CK.part3.rar 700.00 MB 18.12.2014 08:04:14
turbogenerator.info_The_Monthly_Istanbul,_Kasshoku_Oneesan_No_Fudeoroshi_Ver_4.1_(English).zip 21.07 MB 18.12.2014 08:06:08
turbogenerator.info_Speedpremium.info_[FHD]ISD-194.part05.rar 499.00 MB 18.12.2014 08:30:56
turbogenerator.info_Speedpremium.info_[FHD]ISD-194.part06.rar 499.00 MB 18.12.2014 08:31:15
turbogenerator.info_Le.Saint.S05E04.La.revolution.avi 391.22 MB 18.12.2014 08:34:28
turbogenerator.info_Speedpremium.info_[FHD]ISD-194.part09.rar 130.54 MB 18.12.2014 08:48:06
turbogenerator.info_Zid_(2014)_-_HDRip_-_x264_-_MP3_-_450MB_[Doridro.Com].mkv 453.46 MB 18.12.2014 08:52:55
turbogenerator.info_Le.Saint.S05E06.Un.drole.de.monstre.avi 390.97 MB 18.12.2014 09:07:47
turbogenerator.info_92b96ad80527351df0aa7846fd42a328667de69230385f3c094f2b22b99f5c68f5b1a919ccd70f5c72fa9c72750b0743d32784da0a6a9238c41202e076d5e45ac0f34cbd376e01b803206073640d8a54e9875470643c1e 9.70 KB 18.12.2014 09:12:49
turbogenerator.info_Speedpremium.info_dioguitar23.net_SKY-300-DVD.part05.rar 452.00 MB 18.12.2014 09:13:05
turbogenerator.info_Speedpremium.info_dioguitar23.net_SKY-300-DVD.part06.rar 452.00 MB 18.12.2014 09:15:56
turbogenerator.info_Speedpremium.info_dioguitar23.net_SKY-300-DVD.part10.rar 3.75 MB 18.12.2014 09:19:32
turbogenerator.info_Speedpremium.info_dioguitar23.net_SKY-300-DVD.part09.rar 452.00 MB 18.12.2014 09:21:53
turbogenerator.info_Speedpremium.info_121814_166-HD.part3.rar 452.00 MB 18.12.2014 09:27:03
turbogenerator.info_Speedpremium.info_121814_166-HD.part4.rar 452.00 MB 18.12.2014 09:27:08
turbogenerator.info_(一般コミック)_[中津賢也]_桃色サバス_全12巻.rar 509.84 MB 18.12.2014 09:36:04
turbogenerator.info_Le.Saint.S05E07.Le.diamant.avi 391.15 MB 18.12.2014 09:40:13
turbogenerator.info_IMTechnicalTraining.part3.rar Unknown 18.12.2014 09:57:30
turbogenerator.info_Camilla_8.wmv 99.76 MB 18.12.2014 09:58:14
turbogenerator.info_Le.Saint.S05E08.La.fete.romaine.avi 391.36 MB 18.12.2014 09:58:32
turbogenerator.info_OBB_Dead_Effect_v1.2.1_gamesandroidhvga.com.part1.rar 200.00 MB 18.12.2014 10:07:50
turbogenerator.info_maintenance.html 644.00 B 18.12.2014 10:08:14
turbogenerator.info_Le.Saint.S05E09.Le.meilleur.piege.avi 390.88 MB 18.12.2014 10:10:12
turbogenerator.info_Dead_Effect_v1.2.1_Mod.apk 12.86 MB 18.12.2014 10:14:20
turbogenerator.info_Speedpremium.info_i3vg0pcc.4x4.mp4 229.44 MB 18.12.2014 10:15:09
turbogenerator.info_Speedpremium.info_Berta_I_Like_My_Hair.mp4 323.59 MB 18.12.2014 10:17:22
turbogenerator.info_Speedpremium.info_nb171214lezabalezi.mp4 641.40 MB 18.12.2014 10:25:08
turbogenerator.info_Speedpremium.info_capricavannidc103114-vid01_999.mp4 823.85 MB 18.12.2014 10:25:51
  Total: 22.85 GB    
Works With
2shared.com | 4shared.com | ADrive.com | Badongo.com | Bitshare.com | Crocko.com | Depositfiles.com | Enterupload.com | Filefactory.com | Hotfile.com | Letitbit.net | Mediafire.com | Netload.in | Oron.com | Rapidshare.com | Share-Online.biz | Shareflare.net | Turbobit.net | UploadStation.com | Uploaded.to | Uploading.com | ZShare.net
Kills
Anonym.to | Linkbucks.com | Lix.in
Rapidshare.com Folders | Usercash.com




Display Links Only: Kill Links Only:

Lix Checker v3.0.0 | Copyright Dman - MaxW.org | Optimized by zpikdum and sarkar
Mod by eqbal | Ajax'd by TheOnly92 | Updated by Th3-822

 

web counter

File Size Limit: 1.00 GB
Auto-Delete: 5 Hours After Transload

In Use:49.87 GB / 450.47 GB